Year,Month,Day,Hour,Minute,Value (Times are PST for temperature in C)
2017,11,26,00,00,6.30
2017,11,26,00,01,6.30
2017,11,26,00,02,6.30
2017,11,26,00,03,6.30
2017,11,26,00,04,6.30
2017,11,26,00,05,6.30
2017,11,26,00,06,6.30
2017,11,26,00,07,6.30
2017,11,26,00,08,6.30
2017,11,26,00,09,6.30
2017,11,26,00,10,6.30
2017,11,26,00,11,6.40
2017,11,26,00,12,6.30
2017,11,26,00,13,6.40
2017,11,26,00,14,6.40
2017,11,26,00,15,6.40
2017,11,26,00,16,6.40
2017,11,26,00,17,6.40
2017,11,26,00,18,6.40
2017,11,26,00,19,6.40
2017,11,26,00,20,6.40
2017,11,26,00,21,6.40
2017,11,26,00,22,6.40
2017,11,26,00,23,6.40
2017,11,26,00,24,6.40
2017,11,26,00,25,6.40
2017,11,26,00,26,6.40
2017,11,26,00,27,6.40
2017,11,26,00,28,6.40
2017,11,26,00,29,6.40
2017,11,26,00,30,6.40
2017,11,26,00,31,6.40
2017,11,26,00,32,6.40
2017,11,26,00,33,6.40
2017,11,26,00,34,6.40
2017,11,26,00,35,6.40
2017,11,26,00,36,6.50
2017,11,26,00,37,6.50
2017,11,26,00,38,6.50
2017,11,26,00,39,6.50
2017,11,26,00,40,6.50
2017,11,26,00,41,6.50
2017,11,26,00,42,6.50
2017,11,26,00,43,6.50
2017,11,26,00,44,6.50
2017,11,26,00,45,6.50
2017,11,26,00,46,6.50
2017,11,26,00,47,6.50
2017,11,26,00,48,6.50
2017,11,26,00,49,6.50
2017,11,26,00,50,6.50
2017,11,26,00,51,6.50
2017,11,26,00,52,6.50
2017,11,26,00,53,6.60
2017,11,26,00,54,6.60
2017,11,26,00,55,6.60
2017,11,26,00,56,6.60
2017,11,26,00,57,6.60
2017,11,26,00,58,6.60
2017,11,26,00,59,6.60
2017,11,26,01,00,6.60
2017,11,26,01,01,6.60
2017,11,26,01,02,6.60
2017,11,26,01,03,6.60
2017,11,26,01,04,6.60
2017,11,26,01,05,6.60
2017,11,26,01,06,6.60
2017,11,26,01,07,6.60
2017,11,26,01,08,6.60
2017,11,26,01,09,6.60
2017,11,26,01,10,6.70
2017,11,26,01,11,6.70
2017,11,26,01,12,6.70
2017,11,26,01,13,6.70
2017,11,26,01,14,6.70
2017,11,26,01,15,6.70
2017,11,26,01,16,6.70
2017,11,26,01,17,6.70
2017,11,26,01,18,6.70
2017,11,26,01,19,6.70
2017,11,26,01,20,6.70
2017,11,26,01,21,6.70
2017,11,26,01,22,6.70
2017,11,26,01,23,6.70
2017,11,26,01,24,6.70
2017,11,26,01,25,6.70
2017,11,26,01,26,6.70
2017,11,26,01,27,6.70
2017,11,26,01,28,6.70
2017,11,26,01,29,6.70
2017,11,26,01,30,6.70
2017,11,26,01,31,6.70
2017,11,26,01,32,6.70
2017,11,26,01,33,6.70
2017,11,26,01,34,6.70
2017,11,26,01,35,6.80
2017,11,26,01,36,6.70
2017,11,26,01,37,6.70
2017,11,26,01,38,6.80
2017,11,26,01,39,6.80
2017,11,26,01,40,6.80
2017,11,26,01,41,6.80
2017,11,26,01,42,6.80
2017,11,26,01,43,6.80
2017,11,26,01,44,6.80
2017,11,26,01,45,6.80
2017,11,26,01,46,6.80
2017,11,26,01,47,6.80
2017,11,26,01,48,6.80
2017,11,26,01,49,6.80
2017,11,26,01,50,6.80
2017,11,26,01,51,6.80
2017,11,26,01,52,6.80
2017,11,26,01,53,6.80
2017,11,26,01,54,6.80
2017,11,26,01,55,6.80
2017,11,26,01,56,6.80
2017,11,26,01,57,6.80
2017,11,26,01,58,6.80
2017,11,26,01,59,6.80
2017,11,26,02,00,6.90
2017,11,26,02,01,6.90
2017,11,26,02,02,6.90
2017,11,26,02,03,6.90
2017,11,26,02,04,6.90
2017,11,26,02,05,6.90
2017,11,26,02,06,6.90
2017,11,26,02,07,6.90
2017,11,26,02,08,6.90
2017,11,26,02,09,6.90
2017,11,26,02,10,7.00
2017,11,26,02,11,7.00
2017,11,26,02,12,7.00
2017,11,26,02,13,7.00
2017,11,26,02,14,7.00
2017,11,26,02,15,7.10
2017,11,26,02,16,7.10
2017,11,26,02,17,7.10
2017,11,26,02,18,7.10
2017,11,26,02,19,7.10
2017,11,26,02,20,7.10
2017,11,26,02,21,7.10
2017,11,26,02,22,7.10
2017,11,26,02,23,7.10
2017,11,26,02,24,7.10
2017,11,26,02,25,7.10
2017,11,26,02,26,7.10
2017,11,26,02,27,7.20
2017,11,26,02,28,7.20
2017,11,26,02,29,7.20
2017,11,26,02,30,7.20
2017,11,26,02,31,7.20
2017,11,26,02,32,7.20
2017,11,26,02,33,7.20
2017,11,26,02,34,7.20
2017,11,26,02,35,7.20
2017,11,26,02,36,7.20
2017,11,26,02,37,7.20
2017,11,26,02,38,7.20
2017,11,26,02,39,7.20
2017,11,26,02,40,7.20
2017,11,26,02,41,7.20
2017,11,26,02,42,7.20
2017,11,26,02,43,7.20
2017,11,26,02,44,7.20
2017,11,26,02,45,7.20
2017,11,26,02,46,7.20
2017,11,26,02,47,7.20
2017,11,26,02,48,7.20
2017,11,26,02,49,7.20
2017,11,26,02,50,7.20
2017,11,26,02,51,7.20
2017,11,26,02,52,7.20
2017,11,26,02,53,7.20
2017,11,26,02,54,7.20
2017,11,26,02,55,7.20
2017,11,26,02,56,7.20
2017,11,26,02,57,7.20
2017,11,26,02,58,7.20
2017,11,26,02,59,7.20
2017,11,26,03,00,7.20
2017,11,26,03,01,7.20
2017,11,26,03,02,7.20
2017,11,26,03,03,7.20
2017,11,26,03,04,7.20
2017,11,26,03,05,7.20
2017,11,26,03,06,7.20
2017,11,26,03,07,7.20
2017,11,26,03,08,7.20
2017,11,26,03,09,7.20
2017,11,26,03,10,7.20
2017,11,26,03,11,7.20
2017,11,26,03,12,7.20
2017,11,26,03,13,7.30
2017,11,26,03,14,7.30
2017,11,26,03,15,7.30
2017,11,26,03,16,7.30
2017,11,26,03,17,7.30
2017,11,26,03,18,7.30
2017,11,26,03,19,7.30
2017,11,26,03,20,7.30
2017,11,26,03,21,7.30
2017,11,26,03,22,7.30
2017,11,26,03,23,7.30
2017,11,26,03,24,7.40
2017,11,26,03,25,7.40
2017,11,26,03,26,7.40
2017,11,26,03,27,7.40
2017,11,26,03,28,7.40
2017,11,26,03,29,7.40
2017,11,26,03,30,7.50
2017,11,26,03,31,7.50
2017,11,26,03,32,7.50
2017,11,26,03,33,7.50
2017,11,26,03,34,7.50
2017,11,26,03,35,7.50
2017,11,26,03,36,7.50
2017,11,26,03,37,7.60
2017,11,26,03,38,7.60
2017,11,26,03,39,7.60
2017,11,26,03,40,7.60
2017,11,26,03,41,7.60
2017,11,26,03,42,7.60
2017,11,26,03,43,7.60
2017,11,26,03,44,7.70
2017,11,26,03,45,7.70
2017,11,26,03,46,7.70
2017,11,26,03,47,7.70
2017,11,26,03,48,7.70
2017,11,26,03,49,7.70
2017,11,26,03,50,7.70
2017,11,26,03,51,7.70
2017,11,26,03,52,7.70
2017,11,26,03,53,7.70
2017,11,26,03,54,7.80
2017,11,26,03,55,7.80
2017,11,26,03,56,7.80
2017,11,26,03,57,7.80
2017,11,26,03,58,7.80
2017,11,26,03,59,7.80
2017,11,26,04,00,7.90
2017,11,26,04,01,7.90
2017,11,26,04,02,7.90
2017,11,26,04,03,7.90
2017,11,26,04,04,7.90
2017,11,26,04,05,7.90
2017,11,26,04,06,7.90
2017,11,26,04,07,8.00
2017,11,26,04,08,8.00
2017,11,26,04,09,8.00
2017,11,26,04,10,8.00
2017,11,26,04,11,8.10
2017,11,26,04,12,8.10
2017,11,26,04,13,8.10
2017,11,26,04,14,8.20
2017,11,26,04,15,8.20
2017,11,26,04,16,8.20
2017,11,26,04,17,8.20
2017,11,26,04,18,8.20
2017,11,26,04,19,8.20
2017,11,26,04,20,8.20
2017,11,26,04,21,8.30
2017,11,26,04,22,8.30
2017,11,26,04,23,8.30
2017,11,26,04,24,8.30
2017,11,26,04,25,8.30
2017,11,26,04,26,8.30
2017,11,26,04,27,8.50
2017,11,26,04,28,8.80
2017,11,26,04,29,9.20
2017,11,26,04,30,9.40
2017,11,26,04,31,9.40
2017,11,26,04,32,9.40
2017,11,26,04,33,9.40
2017,11,26,04,34,9.40
2017,11,26,04,35,9.50
2017,11,26,04,36,9.50
2017,11,26,04,37,9.60
2017,11,26,04,38,9.70
2017,11,26,04,39,9.90
2017,11,26,04,40,9.90
2017,11,26,04,41,9.90
2017,11,26,04,42,9.90
2017,11,26,04,43,9.90
2017,11,26,04,44,10.00
2017,11,26,04,45,10.10
2017,11,26,04,46,10.30
2017,11,26,04,47,10.50
2017,11,26,04,48,10.60
2017,11,26,04,49,10.70
2017,11,26,04,50,10.70
2017,11,26,04,51,10.90
2017,11,26,04,52,10.90
2017,11,26,04,53,10.80
2017,11,26,04,54,10.80
2017,11,26,04,55,10.90
2017,11,26,04,56,11.00
2017,11,26,04,57,11.10
2017,11,26,04,58,11.10
2017,11,26,04,59,11.20
2017,11,26,05,00,11.20
2017,11,26,05,01,11.20
2017,11,26,05,02,11.20
2017,11,26,05,03,11.30
2017,11,26,05,04,11.20
2017,11,26,05,05,11.20
2017,11,26,05,06,11.20
2017,11,26,05,07,11.20
2017,11,26,05,08,11.20
2017,11,26,05,09,11.20
2017,11,26,05,10,11.20
2017,11,26,05,11,11.30
2017,11,26,05,12,11.30
2017,11,26,05,13,11.30
2017,11,26,05,14,11.30
2017,11,26,05,15,11.40
2017,11,26,05,16,11.40
2017,11,26,05,17,11.40
2017,11,26,05,18,11.40
2017,11,26,05,19,11.40
2017,11,26,05,20,11.40
2017,11,26,05,21,11.40
2017,11,26,05,22,11.40
2017,11,26,05,23,11.40
2017,11,26,05,24,11.30
2017,11,26,05,25,11.30
2017,11,26,05,26,11.40
2017,11,26,05,27,11.40
2017,11,26,05,28,11.40
2017,11,26,05,29,11.40
2017,11,26,05,30,11.40
2017,11,26,05,31,11.40
2017,11,26,05,32,11.50
2017,11,26,05,33,11.50
2017,11,26,05,34,11.60
2017,11,26,05,35,11.60
2017,11,26,05,36,11.60
2017,11,26,05,37,11.60
2017,11,26,05,38,11.50
2017,11,26,05,39,11.50
2017,11,26,05,40,11.40
2017,11,26,05,41,11.40
2017,11,26,05,42,11.40
2017,11,26,05,43,11.40
2017,11,26,05,44,11.30
2017,11,26,05,45,11.30
2017,11,26,05,46,11.30
2017,11,26,05,47,11.20
2017,11,26,05,48,11.20
2017,11,26,05,49,11.20
2017,11,26,05,50,11.20
2017,11,26,05,51,11.20
2017,11,26,05,52,11.20
2017,11,26,05,53,11.20
2017,11,26,05,54,11.20
2017,11,26,05,55,11.10
2017,11,26,05,56,11.10
2017,11,26,05,57,11.00
2017,11,26,05,58,11.00
2017,11,26,05,59,11.00
2017,11,26,06,00,10.90
2017,11,26,06,01,10.80
2017,11,26,06,02,10.80
2017,11,26,06,03,10.70
2017,11,26,06,04,10.70
2017,11,26,06,05,10.60
2017,11,26,06,06,10.60
2017,11,26,06,07,10.50
2017,11,26,06,08,10.40
2017,11,26,06,09,10.40
2017,11,26,06,10,10.30
2017,11,26,06,11,10.30
2017,11,26,06,12,10.20
2017,11,26,06,13,10.20
2017,11,26,06,14,10.20
2017,11,26,06,15,10.10
2017,11,26,06,16,10.10
2017,11,26,06,17,10.10
2017,11,26,06,18,10.10
2017,11,26,06,19,10.00
2017,11,26,06,20,10.00
2017,11,26,06,21,10.00
2017,11,26,06,22,9.90
2017,11,26,06,23,9.90
2017,11,26,06,24,9.90
2017,11,26,06,25,9.90
2017,11,26,06,26,9.90
2017,11,26,06,27,9.80
2017,11,26,06,28,9.80
2017,11,26,06,29,9.80
2017,11,26,06,30,9.80
2017,11,26,06,31,9.80
2017,11,26,06,32,9.80
2017,11,26,06,33,9.80
2017,11,26,06,34,9.80
2017,11,26,06,35,9.70
2017,11,26,06,36,9.70
2017,11,26,06,37,9.70
2017,11,26,06,38,9.70
2017,11,26,06,39,9.70
2017,11,26,06,40,9.70
2017,11,26,06,41,9.70
2017,11,26,06,42,9.70
2017,11,26,06,43,9.70
2017,11,26,06,44,9.60
2017,11,26,06,45,9.60
2017,11,26,06,46,9.60
2017,11,26,06,47,9.60
2017,11,26,06,48,9.60
2017,11,26,06,49,9.60
2017,11,26,06,50,9.60
2017,11,26,06,51,9.60
2017,11,26,06,52,9.60
2017,11,26,06,53,9.60
2017,11,26,06,54,9.50
2017,11,26,06,55,9.50
2017,11,26,06,56,9.50
2017,11,26,06,57,9.50
2017,11,26,06,58,9.50
2017,11,26,06,59,9.40
2017,11,26,07,00,9.40
2017,11,26,07,01,9.40
2017,11,26,07,02,9.40
2017,11,26,07,03,9.40
2017,11,26,07,04,9.40
2017,11,26,07,05,9.40
2017,11,26,07,06,9.40
2017,11,26,07,07,9.40
2017,11,26,07,08,9.40
2017,11,26,07,09,9.40
2017,11,26,07,10,9.30
2017,11,26,07,11,9.30
2017,11,26,07,12,9.30
2017,11,26,07,13,9.30
2017,11,26,07,14,9.30
2017,11,26,07,15,9.30
2017,11,26,07,16,9.30
2017,11,26,07,17,9.20
2017,11,26,07,18,9.20
2017,11,26,07,19,9.20
2017,11,26,07,20,9.20
2017,11,26,07,21,9.20
2017,11,26,07,22,9.20
2017,11,26,07,23,9.20
2017,11,26,07,24,9.20
2017,11,26,07,25,9.20
2017,11,26,07,26,9.20
2017,11,26,07,27,9.10
2017,11,26,07,28,9.10
2017,11,26,07,29,9.10
2017,11,26,07,30,9.10
2017,11,26,07,31,9.10
2017,11,26,07,32,9.10
2017,11,26,07,33,9.10
2017,11,26,07,34,9.10
2017,11,26,07,35,9.00
2017,11,26,07,36,9.00
2017,11,26,07,37,9.00
2017,11,26,07,38,9.00
2017,11,26,07,39,8.90
2017,11,26,07,40,8.90
2017,11,26,07,41,8.90
2017,11,26,07,42,8.80
2017,11,26,07,43,8.80
2017,11,26,07,44,8.80
2017,11,26,07,45,8.80
2017,11,26,07,46,8.80
2017,11,26,07,47,8.80
2017,11,26,07,48,8.80
2017,11,26,07,49,8.80
2017,11,26,07,50,8.80
2017,11,26,07,51,8.80
2017,11,26,07,52,8.80
2017,11,26,07,53,8.80
2017,11,26,07,54,8.80
2017,11,26,07,55,8.80
2017,11,26,07,56,8.80
2017,11,26,07,57,8.80
2017,11,26,07,58,8.80
2017,11,26,07,59,8.80
2017,11,26,08,00,8.90
2017,11,26,08,01,8.90
2017,11,26,08,02,8.90
2017,11,26,08,03,8.90
2017,11,26,08,04,8.90
2017,11,26,08,05,8.90
2017,11,26,08,06,8.90
2017,11,26,08,07,8.90
2017,11,26,08,08,8.90
2017,11,26,08,09,8.90
2017,11,26,08,10,8.90
2017,11,26,08,11,9.00
2017,11,26,08,12,9.00
2017,11,26,08,13,8.90
2017,11,26,08,14,9.00
2017,11,26,08,15,8.90
2017,11,26,08,16,8.90
2017,11,26,08,17,8.90
2017,11,26,08,18,8.90
2017,11,26,08,19,8.90
2017,11,26,08,20,9.00
2017,11,26,08,21,9.00
2017,11,26,08,22,9.00
2017,11,26,08,23,9.00
2017,11,26,08,24,9.00
2017,11,26,08,25,9.00
2017,11,26,08,26,9.00
2017,11,26,08,27,9.00
2017,11,26,08,28,9.00
2017,11,26,08,29,9.00
2017,11,26,08,30,9.00
2017,11,26,08,31,9.00
2017,11,26,08,32,9.00
2017,11,26,08,33,9.10
2017,11,26,08,34,9.10
2017,11,26,08,35,9.10
2017,11,26,08,36,9.10
2017,11,26,08,37,9.00
2017,11,26,08,38,9.00
2017,11,26,08,39,9.00
2017,11,26,08,40,9.00
2017,11,26,08,41,9.00
2017,11,26,08,42,9.00
2017,11,26,08,43,8.90
2017,11,26,08,44,8.90
2017,11,26,08,45,8.90
2017,11,26,08,46,8.90
2017,11,26,08,47,8.90
2017,11,26,08,48,8.90
2017,11,26,08,49,8.90
2017,11,26,08,50,8.90
2017,11,26,08,51,8.80
2017,11,26,08,52,8.80
2017,11,26,08,53,8.80
2017,11,26,08,54,8.80
2017,11,26,08,55,8.80
2017,11,26,08,56,8.80
2017,11,26,08,57,8.80
2017,11,26,08,58,8.80
2017,11,26,08,59,8.80
2017,11,26,09,00,8.80
2017,11,26,09,01,8.80
2017,11,26,09,02,8.80
2017,11,26,09,03,8.80
2017,11,26,09,04,8.80
2017,11,26,09,05,8.80
2017,11,26,09,06,8.80
2017,11,26,09,07,8.70
2017,11,26,09,08,8.70
2017,11,26,09,09,8.70
2017,11,26,09,10,8.70
2017,11,26,09,11,8.70
2017,11,26,09,12,8.70
2017,11,26,09,13,8.60
2017,11,26,09,14,8.60
2017,11,26,09,15,8.60
2017,11,26,09,16,8.60
2017,11,26,09,17,8.60
2017,11,26,09,18,8.60
2017,11,26,09,19,8.60
2017,11,26,09,20,8.60
2017,11,26,09,21,8.60
2017,11,26,09,22,8.60
2017,11,26,09,23,8.60
2017,11,26,09,24,8.60
2017,11,26,09,25,8.60
2017,11,26,09,26,8.60
2017,11,26,09,27,8.60
2017,11,26,09,28,8.50
2017,11,26,09,29,8.50
2017,11,26,09,30,8.50
2017,11,26,09,31,8.50
2017,11,26,09,32,8.50
2017,11,26,09,33,8.40
2017,11,26,09,34,8.40
2017,11,26,09,35,8.40
2017,11,26,09,36,8.40
2017,11,26,09,37,8.40
2017,11,26,09,38,8.40
2017,11,26,09,39,8.40
2017,11,26,09,40,8.30
2017,11,26,09,41,8.40
2017,11,26,09,42,8.30
2017,11,26,09,43,8.30
2017,11,26,09,44,8.30
2017,11,26,09,45,8.30
2017,11,26,09,46,8.30
2017,11,26,09,47,8.30
2017,11,26,09,48,8.30
2017,11,26,09,49,8.30
2017,11,26,09,50,8.30
2017,11,26,09,51,8.30
2017,11,26,09,52,8.30
2017,11,26,09,53,8.30
2017,11,26,09,54,8.30
2017,11,26,09,55,8.30
2017,11,26,09,56,8.30
2017,11,26,09,57,8.30
2017,11,26,09,58,8.20
2017,11,26,09,59,8.20
2017,11,26,10,00,8.20
2017,11,26,10,01,8.20
2017,11,26,10,02,8.20
2017,11,26,10,03,8.20
2017,11,26,10,04,8.20
2017,11,26,10,05,8.10
2017,11,26,10,06,8.10
2017,11,26,10,07,8.00
2017,11,26,10,08,8.00
2017,11,26,10,09,7.90
2017,11,26,10,10,7.90
2017,11,26,10,11,7.80
2017,11,26,10,12,7.80
2017,11,26,10,13,7.80
2017,11,26,10,14,7.80
2017,11,26,10,15,7.70
2017,11,26,10,16,7.70
2017,11,26,10,17,7.70
2017,11,26,10,18,7.70
2017,11,26,10,19,7.70
2017,11,26,10,20,7.60
2017,11,26,10,21,7.60
2017,11,26,10,22,7.60
2017,11,26,10,23,7.60
2017,11,26,10,24,7.60
2017,11,26,10,25,7.60
2017,11,26,10,26,7.60
2017,11,26,10,27,7.60
2017,11,26,10,28,7.50
2017,11,26,10,29,7.50
2017,11,26,10,30,7.50
2017,11,26,10,31,7.50
2017,11,26,10,32,7.60
2017,11,26,10,33,7.60
2017,11,26,10,34,7.50
2017,11,26,10,35,7.50
2017,11,26,10,36,7.50
2017,11,26,10,37,7.60
2017,11,26,10,38,7.50
2017,11,26,10,39,7.50
2017,11,26,10,40,7.50
2017,11,26,10,41,7.50
2017,11,26,10,42,7.50
2017,11,26,10,43,7.50
2017,11,26,10,44,7.40
2017,11,26,10,45,7.40
2017,11,26,10,46,7.40
2017,11,26,10,47,7.40
2017,11,26,10,48,7.40
2017,11,26,10,49,7.40
2017,11,26,10,50,7.40
2017,11,26,10,51,7.40
2017,11,26,10,52,7.40
2017,11,26,10,53,7.40
2017,11,26,10,54,7.30
2017,11,26,10,55,7.30
2017,11,26,10,56,7.30
2017,11,26,10,57,7.40
2017,11,26,10,58,7.40
2017,11,26,10,59,7.40
2017,11,26,11,00,7.40
2017,11,26,11,01,7.40
2017,11,26,11,02,7.40
2017,11,26,11,03,7.40
2017,11,26,11,04,7.30
2017,11,26,11,05,7.30
2017,11,26,11,06,7.30
2017,11,26,11,07,7.30
2017,11,26,11,08,7.30
2017,11,26,11,09,7.20
2017,11,26,11,10,7.20
2017,11,26,11,11,7.20
2017,11,26,11,12,7.20
2017,11,26,11,13,7.20
2017,11,26,11,14,7.20
2017,11,26,11,15,7.20
2017,11,26,11,16,7.20
2017,11,26,11,17,7.20
2017,11,26,11,18,7.20
2017,11,26,11,19,7.20
2017,11,26,11,20,7.20
2017,11,26,11,21,7.20
2017,11,26,11,22,7.20
2017,11,26,11,23,7.20
2017,11,26,11,24,7.10
2017,11,26,11,25,7.10
2017,11,26,11,26,7.10
2017,11,26,11,27,7.10
2017,11,26,11,28,7.10
2017,11,26,11,29,7.10
2017,11,26,11,30,7.10
2017,11,26,11,31,7.10
2017,11,26,11,32,7.10
2017,11,26,11,33,7.10
2017,11,26,11,34,7.10
2017,11,26,11,35,7.10
2017,11,26,11,36,7.10
2017,11,26,11,37,7.00
2017,11,26,11,38,7.00
2017,11,26,11,39,7.00
2017,11,26,11,40,7.00
2017,11,26,11,41,7.00
2017,11,26,11,42,6.90
2017,11,26,11,43,6.90
2017,11,26,11,44,6.90
2017,11,26,11,45,6.90
2017,11,26,11,46,6.90
2017,11,26,11,47,6.90
2017,11,26,11,48,6.80
2017,11,26,11,49,6.80
2017,11,26,11,50,6.80
2017,11,26,11,51,6.80
2017,11,26,11,52,6.80
2017,11,26,11,53,6.80
2017,11,26,11,54,6.70
2017,11,26,11,55,6.70
2017,11,26,11,56,6.70
2017,11,26,11,57,6.70
2017,11,26,11,58,6.70
2017,11,26,11,59,6.70
2017,11,26,12,00,6.70
2017,11,26,12,01,6.70
2017,11,26,12,02,6.70
2017,11,26,12,03,6.70
2017,11,26,12,04,6.60
2017,11,26,12,05,6.60
2017,11,26,12,06,6.60
2017,11,26,12,07,6.60
2017,11,26,12,08,6.60
2017,11,26,12,09,6.60
2017,11,26,12,10,6.60
2017,11,26,12,11,6.60
2017,11,26,12,12,6.60
2017,11,26,12,13,6.60
2017,11,26,12,14,6.60
2017,11,26,12,15,6.60
2017,11,26,12,16,6.60
2017,11,26,12,17,6.60
2017,11,26,12,18,6.60
2017,11,26,12,19,6.60
2017,11,26,12,20,6.60
2017,11,26,12,21,6.60
2017,11,26,12,22,6.60
2017,11,26,12,23,6.60
2017,11,26,12,24,6.60
2017,11,26,12,25,6.60
2017,11,26,12,26,6.60
2017,11,26,12,27,6.60
2017,11,26,12,28,6.60
2017,11,26,12,29,6.60
2017,11,26,12,30,6.60
2017,11,26,12,31,6.60
2017,11,26,12,32,6.60
2017,11,26,12,33,6.60
2017,11,26,12,34,6.60
2017,11,26,12,35,6.60
2017,11,26,12,36,6.60
2017,11,26,12,37,6.60
2017,11,26,12,38,6.60
2017,11,26,12,39,6.60
2017,11,26,12,40,6.60
2017,11,26,12,41,6.60
2017,11,26,12,42,6.60
2017,11,26,12,43,6.60
2017,11,26,12,44,6.60
2017,11,26,12,45,6.60
2017,11,26,12,46,6.60
2017,11,26,12,47,6.60
2017,11,26,12,48,6.60
2017,11,26,12,49,6.60
2017,11,26,12,50,6.60
2017,11,26,12,51,6.60
2017,11,26,12,52,6.60
2017,11,26,12,53,6.60
2017,11,26,12,54,6.60
2017,11,26,12,55,6.60
2017,11,26,12,56,6.70
2017,11,26,12,57,6.70
2017,11,26,12,58,6.70
2017,11,26,12,59,6.70
2017,11,26,13,00,6.70
2017,11,26,13,01,6.70
2017,11,26,13,02,6.70
2017,11,26,13,03,6.70
2017,11,26,13,04,6.70
2017,11,26,13,05,6.70
2017,11,26,13,06,6.80
2017,11,26,13,07,6.80
2017,11,26,13,08,6.80
2017,11,26,13,09,6.80
2017,11,26,13,10,6.80
2017,11,26,13,11,6.80
2017,11,26,13,12,6.80
2017,11,26,13,13,6.80
2017,11,26,13,14,6.80
2017,11,26,13,15,6.80
2017,11,26,13,16,6.80
2017,11,26,13,17,6.80
2017,11,26,13,18,6.80
2017,11,26,13,19,6.80
2017,11,26,13,20,6.80
2017,11,26,13,21,6.80
2017,11,26,13,22,6.80
2017,11,26,13,23,6.80
2017,11,26,13,24,6.80
2017,11,26,13,25,6.80
2017,11,26,13,26,6.80
2017,11,26,13,27,6.80
2017,11,26,13,28,6.80
2017,11,26,13,29,6.90
2017,11,26,13,30,6.90
2017,11,26,13,31,6.90
2017,11,26,13,32,6.90
2017,11,26,13,33,6.90
2017,11,26,13,34,6.90
2017,11,26,13,35,6.90
2017,11,26,13,36,6.90
2017,11,26,13,37,7.00
2017,11,26,13,38,7.00
2017,11,26,13,39,7.00
2017,11,26,13,40,7.00
2017,11,26,13,41,7.00
2017,11,26,13,42,6.90
2017,11,26,13,43,7.00
2017,11,26,13,44,7.00
2017,11,26,13,45,7.00
2017,11,26,13,46,7.00
2017,11,26,13,47,7.10
2017,11,26,13,48,7.10
2017,11,26,13,49,7.10
2017,11,26,13,50,7.00
2017,11,26,13,51,7.00
2017,11,26,13,52,7.00
2017,11,26,13,53,7.00
2017,11,26,13,54,7.00
2017,11,26,13,55,7.00
2017,11,26,13,56,7.00
2017,11,26,13,57,6.90
2017,11,26,13,58,6.90
2017,11,26,13,59,6.90
2017,11,26,14,00,6.80
2017,11,26,14,01,6.80
2017,11,26,14,02,6.80
2017,11,26,14,03,6.80
2017,11,26,14,04,6.70
2017,11,26,14,05,6.70
2017,11,26,14,06,6.70
2017,11,26,14,07,6.60
2017,11,26,14,08,6.60
2017,11,26,14,09,6.60
2017,11,26,14,10,6.60
2017,11,26,14,11,6.50
2017,11,26,14,12,6.50
2017,11,26,14,13,6.40
2017,11,26,14,14,6.40
2017,11,26,14,15,6.40
2017,11,26,14,16,6.40
2017,11,26,14,17,6.40
2017,11,26,14,18,6.40
2017,11,26,14,19,6.30
2017,11,26,14,20,6.30
2017,11,26,14,21,6.30
2017,11,26,14,22,6.30
2017,11,26,14,23,6.30
2017,11,26,14,24,6.30
2017,11,26,14,25,6.30
2017,11,26,14,26,6.40
2017,11,26,14,27,6.40
2017,11,26,14,28,6.40
2017,11,26,14,29,6.50
2017,11,26,14,30,6.50
2017,11,26,14,31,6.50
2017,11,26,14,32,6.60
2017,11,26,14,33,6.60
2017,11,26,14,34,6.60
2017,11,26,14,35,6.60
2017,11,26,14,36,6.70
2017,11,26,14,37,6.70
2017,11,26,14,38,6.70
2017,11,26,14,39,6.70
2017,11,26,14,40,6.70
2017,11,26,14,41,6.80
2017,11,26,14,42,6.80
2017,11,26,14,43,6.80
2017,11,26,14,44,6.80
2017,11,26,14,45,6.80
2017,11,26,14,46,6.80
2017,11,26,14,47,6.80
2017,11,26,14,48,6.80
2017,11,26,14,49,6.80
2017,11,26,14,50,6.80
2017,11,26,14,51,6.80
2017,11,26,14,52,6.70
2017,11,26,14,53,6.70
2017,11,26,14,54,6.70
2017,11,26,14,55,6.70
2017,11,26,14,56,6.70
2017,11,26,14,57,6.70
2017,11,26,14,58,6.70
2017,11,26,14,59,6.70
2017,11,26,15,00,6.70
2017,11,26,15,01,6.70
2017,11,26,15,02,6.60
2017,11,26,15,03,6.60
2017,11,26,15,04,6.60
2017,11,26,15,05,6.60
2017,11,26,15,06,6.60
2017,11,26,15,07,6.60
2017,11,26,15,08,6.70
2017,11,26,15,09,6.70
2017,11,26,15,10,6.70
2017,11,26,15,11,6.70
2017,11,26,15,12,6.70
2017,11,26,15,13,6.70
2017,11,26,15,14,6.70
2017,11,26,15,15,6.70
2017,11,26,15,16,6.70
2017,11,26,15,17,6.70
2017,11,26,15,18,6.70
2017,11,26,15,19,6.70
2017,11,26,15,20,6.60
2017,11,26,15,21,6.60
2017,11,26,15,22,6.60
2017,11,26,15,23,6.60
2017,11,26,15,24,6.60
2017,11,26,15,25,6.60
2017,11,26,15,26,6.60
2017,11,26,15,27,6.60
2017,11,26,15,28,6.50
2017,11,26,15,29,6.50
2017,11,26,15,30,6.50
2017,11,26,15,31,6.50
2017,11,26,15,32,6.50
2017,11,26,15,33,6.40
2017,11,26,15,34,6.40
2017,11,26,15,35,6.40
2017,11,26,15,36,6.40
2017,11,26,15,37,6.40
2017,11,26,15,38,6.40
2017,11,26,15,39,6.40
2017,11,26,15,40,6.40
2017,11,26,15,41,6.40
2017,11,26,15,42,6.40
2017,11,26,15,43,6.30
2017,11,26,15,44,6.30
2017,11,26,15,45,6.30
2017,11,26,15,46,6.30
2017,11,26,15,47,6.30
2017,11,26,15,48,6.30
2017,11,26,15,49,6.20
2017,11,26,15,50,6.20
2017,11,26,15,51,6.20
2017,11,26,15,52,6.20
2017,11,26,15,53,6.20
2017,11,26,15,54,6.20
2017,11,26,15,55,6.20
2017,11,26,15,56,6.20
2017,11,26,15,57,6.20
2017,11,26,15,58,6.10
2017,11,26,15,59,6.10
2017,11,26,16,00,6.10
2017,11,26,16,01,6.10
2017,11,26,16,02,6.10
2017,11,26,16,03,6.10
2017,11,26,16,04,6.10
2017,11,26,16,05,6.10
2017,11,26,16,06,6.10
2017,11,26,16,07,6.10
2017,11,26,16,08,6.20
2017,11,26,16,09,6.20
2017,11,26,16,10,6.20
2017,11,26,16,11,6.20
2017,11,26,16,12,6.20
2017,11,26,16,13,6.20
2017,11,26,16,14,6.20
2017,11,26,16,15,6.30
2017,11,26,16,16,6.30
2017,11,26,16,17,6.30
2017,11,26,16,18,6.30
2017,11,26,16,19,6.20
2017,11,26,16,20,6.20
2017,11,26,16,21,6.20
2017,11,26,16,22,6.20
2017,11,26,16,23,6.20
2017,11,26,16,24,6.20
2017,11,26,16,25,6.20
2017,11,26,16,26,6.20
2017,11,26,16,27,6.20
2017,11,26,16,28,6.20
2017,11,26,16,29,6.20
2017,11,26,16,30,6.30
2017,11,26,16,31,6.30
2017,11,26,16,32,6.30
2017,11,26,16,33,6.30
2017,11,26,16,34,6.30
2017,11,26,16,35,6.30
2017,11,26,16,36,6.30
2017,11,26,16,37,6.30
2017,11,26,16,38,6.30
2017,11,26,16,39,6.30
2017,11,26,16,40,6.20
2017,11,26,16,41,6.20
2017,11,26,16,42,6.20
2017,11,26,16,43,6.20
2017,11,26,16,44,6.20
2017,11,26,16,45,6.10
2017,11,26,16,46,6.10
2017,11,26,16,47,6.10
2017,11,26,16,48,6.00
2017,11,26,16,49,6.00
2017,11,26,16,50,6.00
2017,11,26,16,51,6.00
2017,11,26,16,52,6.00
2017,11,26,16,53,6.00
2017,11,26,16,54,6.00
2017,11,26,16,55,5.90
2017,11,26,16,56,5.90
2017,11,26,16,57,5.90
2017,11,26,16,58,5.90
2017,11,26,16,59,5.90
2017,11,26,17,00,5.90
2017,11,26,17,01,5.90
2017,11,26,17,02,5.90
2017,11,26,17,03,5.90
2017,11,26,17,04,6.00
2017,11,26,17,05,6.00
2017,11,26,17,06,6.00
2017,11,26,17,07,5.90
2017,11,26,17,08,5.80
2017,11,26,17,09,5.80
2017,11,26,17,10,5.80
2017,11,26,17,11,5.70
2017,11,26,17,12,5.70
2017,11,26,17,13,5.70
2017,11,26,17,14,5.70
2017,11,26,17,15,5.60
2017,11,26,17,16,5.60
2017,11,26,17,17,5.60
2017,11,26,17,18,5.50
2017,11,26,17,19,5.50
2017,11,26,17,20,5.40
2017,11,26,17,21,5.30
2017,11,26,17,22,5.30
2017,11,26,17,23,5.20
2017,11,26,17,24,5.10
2017,11,26,17,25,5.10
2017,11,26,17,26,5.00
2017,11,26,17,27,5.00
2017,11,26,17,28,4.90
2017,11,26,17,29,4.80
2017,11,26,17,30,4.80
2017,11,26,17,31,4.80
2017,11,26,17,32,4.70
2017,11,26,17,33,4.70
2017,11,26,17,34,4.60
2017,11,26,17,35,4.60
2017,11,26,17,36,4.50
2017,11,26,17,37,4.50
2017,11,26,17,38,4.50
2017,11,26,17,39,4.40
2017,11,26,17,40,4.40
2017,11,26,17,41,4.40
2017,11,26,17,42,4.40
2017,11,26,17,43,4.30
2017,11,26,17,44,4.30
2017,11,26,17,45,4.30
2017,11,26,17,46,4.30
2017,11,26,17,47,4.30
2017,11,26,17,48,4.20
2017,11,26,17,49,4.20
2017,11,26,17,50,4.20
2017,11,26,17,51,4.20
2017,11,26,17,52,4.20
2017,11,26,17,53,4.20
2017,11,26,17,54,4.10
2017,11,26,17,55,4.10
2017,11,26,17,56,4.10
2017,11,26,17,57,4.10
2017,11,26,17,58,4.10
2017,11,26,17,59,4.10
2017,11,26,18,00,4.10
2017,11,26,18,01,4.10
2017,11,26,18,02,4.10